Zurück zum Katalog

GEESAT 4-05

AktivWissenschaftLEO
NORAD 65123·PAYLOAD·🇨🇳 China

Gestartet Aug 8, 2025 von Yellow Sea Launch Area

Loading…

Nächste Überflüge (nächste 24 Stunden)

TLE

AktuellSource: Space-Track

Epoche: Sep 14, 2026, 21:40 UTC

1 65123U 25170E   26257.90315287  .00001213  00000-0  17762-3 0  9992
2 65123  49.9947  73.6804 0007538 304.9957  55.0273 14.82385332 60354

Verfolge GEESAT 4-05 in Echtzeit mit AllMySat

Download on the App Store